Voltar ao catálogo

STARLINK-32364

AtivoComunicaçõesVLEO
NORAD 61622·PAYLOAD·🇺🇸 United States

Lançado Oct 23, 2024 de Cape Canaveral Space Force Station

Loading…

Próximas Passagens (próximas 24 horas)

TLE

AtualizadoSource: CelesTrak SupGP

Época: Sep 15, 2026, 02:06 UTC

1 61622C 24191B   26258.08798611 -.00023214  00000+0 -84085-3 0  2586
2 61622  43.0003 164.7619 0001202 271.5127  95.7692 15.27588254    19

Acompanhe STARLINK-32364 em tempo real com AllMySat

Download on the App Store